N6WT Weather Reports


time (UTC)temp
F
wind
direction
speed
knots
gust
knots
rain 1hr
in
rain 24hr
in
rain mn
in
humidity
%
barometer
mb
20260507033524 58 246 0.0 4.3 0.00 0.00 0.00 78 1018.1
20260507033031 58 224 1.7 4.3 0.00 0.00 0.00 77 1018.1
20260507032523 59 306 0.9 2.6 0.00 0.00 0.00 76 1018.1
20260507032029 59 311 0.9 2.6 0.00 0.00 0.00 75 1018.0
20260507031532 59 83 0.0 2.6 0.00 0.00 0.00 75 1018.0
20260507031024 60 304 0.0 7.0 0.00 0.00 0.00 74 1017.9
20260507030524 60 245 1.7 7.0 0.00 0.00 0.00 73 1017.9
20260507030024 60 223 0.9 2.6 0.00 0.00 0.00 72 1017.7
20260507025522 61 261 0.0 1.7 0.00 0.00 0.00 71 1017.7
20260507025025 61 5 0.0 1.7 0.00 0.00 0.00 70 1017.7
20260507024524 61 99 0.0 3.5 0.00 0.00 0.00 70 1017.6
20260507024022 62 132 0.9 3.5 0.00 0.00 0.00 69 1017.6
20260507023522 62 48 0.0 3.5 0.00 0.00 0.00 68 1017.5
20260507023022 62 349 0.9 3.5 0.00 0.00 0.00 68 1017.5
20260507022522 63 28 0.0 4.3 0.00 0.00 0.00 67 1017.4
20260507022022 63 236 0.9 4.3 0.00 0.00 0.00 67 1017.4
20260507021522 63 14 0.0 3.5 0.00 0.00 0.00 66 1017.3
20260507021022 63 32 0.9 3.5 0.00 0.00 0.00 66 1017.3
20260507020522 64 192 0.0 6.1 0.00 0.00 0.00 66 1017.3
20260507020025 64 333 0.9 6.1 0.00 0.00 0.00 65 1017.3
20260507015521 64 115 0.9 2.6 0.00 0.00 0.00 65 1017.3
20260507015021 64 38 0.0 3.5 0.00 0.00 0.00 64 1017.4
20260507014522 64 355 0.9 3.5 0.00 0.00 0.00 64 1017.3
20260507014019 64 192 0.9 10.4 0.00 0.00 0.00 64 1017.4
20260507013519 64 337 2.6 7.0 0.00 0.00 0.00 64 1017.4
20260507013023 65 240 2.6 6.1 0.00 0.00 0.00 62 1017.4
20260507012521 65 307 0.9 5.2 0.00 0.00 0.00 62 1017.3
20260507012019 66 178 0.9 5.2 0.00 0.00 0.00 61 1017.4
20260507011529 67 296 1.7 9.6 0.00 0.00 0.00 60 1017.4
20260507011019 68 127 0.9 9.6 0.00 0.00 0.00 58 1017.4
20260507010519 68 313 2.6 7.8 0.00 0.00 0.00 58 1017.2
20260507010020 69 148 0.9 8.7 0.00 0.00 0.00 58 1017.2
20260507005518 69 291 4.3 8.7 0.00 0.00 0.00 58 1017.2
20260507005023 69 132 0.9 10.4 0.00 0.00 0.00 58 1017.1
20260507004518 69 311 3.5 10.4 0.00 0.00 0.00 58 1017.1
20260507004018 70 317 3.5 10.4 0.00 0.00 0.00 58 1017.0
20260507003518 70 309 4.3 10.4 0.00 0.00 0.00 56 1017.0
20260507003017 70 32 1.7 11.3 0.00 0.00 0.00 57 1017.0
20260507002518 70 302 4.3 11.3 0.00 0.00 0.00 57 1016.9
20260507002017 71 321 4.3 11.3 0.00 0.00 0.00 56 1016.8
20260507001520 71 287 0.9 9.6 0.00 0.00 0.00 57 1016.9
20260507001016 71 318 3.5 10.4 0.00 0.00 0.00 57 1016.9
20260507000516 71 281 3.5 8.7 0.00 0.00 0.00 56 1016.8
20260507000016 71 281 1.7 10.4 0.00 0.00 0.00 56 1016.8
20260506235518 71 18 3.5 12.2 0.00 0.00 0.00 56 1016.8
20260506235015 72 5 4.3 9.6 0.00 0.00 0.00 55 1016.8
20260506234515 72 204 1.7 8.7 0.00 0.00 0.00 54 1016.8
20260506234015 73 92 3.5 9.6 0.00 0.00 0.00 54 1016.8
20260506233516 73 65 0.9 9.6 0.00 0.00 0.00 55 1016.8
20260506233015 72 49 1.7 7.0 0.00 0.00 0.00 57 1016.8
20260506232514 72 84 2.6 9.6 0.00 0.00 0.00 56 1016.8
20260506232014 72 154 2.6 9.6 0.00 0.00 0.00 56 1016.9
20260506231514 73 88 2.6 7.8 0.00 0.00 0.00 55 1016.8
20260506231015 72 314 0.9 6.1 0.00 0.00 0.00 57 1016.8
20260506230513 72 32 1.7 7.8 0.00 0.00 0.00 55 1016.8
20260506230013 72 346 2.6 8.7 0.00 0.00 0.00 56 1016.8
20260506225515 72 309 3.5 13.0 0.00 0.00 0.00 56 1016.8
20260506225020 72 19 1.7 13.0 0.00 0.00 0.00 55 1016.9
20260506224512 72 71 0.9 12.2 0.00 0.00 0.00 57 1016.9
20260506224011 72 297 2.6 11.3 0.00 0.00 0.00 57 1016.9
20260506223511 72 215 1.7 11.3 0.00 0.00 0.00 56 1017.0
20260506223016 73 322 3.5 9.6 0.00 0.00 0.00 55 1017.0
20260506222511 73 75 2.6 9.6 0.00 0.00 0.00 56 1017.1
20260506222010 73 36 3.5 11.3 0.00 0.00 0.00 55 1017.1
20260506221509 73 322 3.5 13.0 0.00 0.00 0.00 55 1017.1
20260506221010 73 350 7.0 13.0 0.00 0.00 0.00 55 1017.1
20260506220508 73 310 4.3 8.7 0.00 0.00 0.00 55 1017.2
20260506220008 73 217 2.6 13.0 0.00 0.00 0.00 56 1017.3
20260506215507 73 153 3.5 13.0 0.00 0.00 0.00 56 1017.3
20260506215007 73 360 4.3 14.8 0.00 0.00 0.00 55 1017.3
20260506214507 73 306 5.2 14.8 0.00 0.00 0.00 55 1017.3
20260506214008 74 200 1.7 10.4 0.00 0.00 0.00 54 1017.4
20260506213506 73 5 3.5 13.0 0.00 0.00 0.00 57 1017.4
20260506213007 73 317 7.8 13.0 0.00 0.00 0.00 55 1017.3
20260506212506 73 302 6.1 10.4 0.00 0.00 0.00 56 1017.4
20260506212008 73 259 2.6 7.0 0.00 0.00 0.00 56 1017.3
20260506211505 72 310 1.7 9.6 0.00 0.00 0.00 57 1017.4
20260506211006 72 108 4.3 13.0 0.00 0.00 0.00 56 1017.5
20260506210506 72 225 5.2 13.0 0.00 0.00 0.00 56 1017.5
20260506210012 71 233 3.5 13.9 0.00 0.00 0.00 56 1017.4
20260506205505 72 96 4.3 13.0 0.00 0.00 0.00 56 1017.6
20260506205005 72 221 6.1 16.5 0.00 0.00 0.00 56 1017.6
20260506204505 72 202 3.5 16.5 0.00 0.00 0.00 55 1017.6
20260506204005 73 123 4.3 12.2 0.00 0.00 0.00 56 1017.5
20260506203504 73 232 3.5 10.4 0.00 0.00 0.00 55 1017.6
20260506203006 73 217 3.5 13.0 0.00 0.00 0.00 55 1017.4
20260506202504 73 208 3.5 13.0 0.00 0.00 0.00 55 1017.4
20260506202004 73 205 4.3 11.3 0.00 0.00 0.00 54 1017.5
20260506201503 72 206 3.5 11.3 0.00 0.00 0.00 55 1017.6
20260506201003 73 271 5.2 9.6 0.00 0.00 0.00 54 1017.6
20260506200502 73 265 3.5 8.7 0.00 0.00 0.00 54 1017.7
20260506200002 73 244 3.5 11.3 0.00 0.00 0.00 53 1017.7
20260506195502 74 265 5.2 11.3 0.00 0.00 0.00 53 1017.7
20260506195002 73 11 2.6 13.0 0.00 0.00 0.00 54 1017.7
20260506194503 73 236 2.6 13.0 0.00 0.00 0.00 55 1017.6
20260506194100 72 308 0.9 13.9 0.00 0.00 0.00 57 1017.7
20260506193603 72 236 7.0 13.9 0.00 0.00 0.00 55 1017.8
20260506193059 73 221 5.2 13.0 0.00 0.00 0.00 54 1017.8
20260506192559 75 206 4.3 10.4 0.00 0.00 0.00 51 1017.9
20260506192100 75 84 2.6 8.7 0.00 0.00 0.00 45 1017.9
20260506191559 76 300 3.5 10.4 0.00 0.00 0.00 45 1017.9
20260506191100 76 34 4.3 10.4 0.00 0.00 0.00 45 1018.0
20260506190557 76 310 0.9 6.1 0.00 0.00 0.00 45 1018.0
20260506190101 76 332 1.7 7.0 0.00 0.00 0.00 44 1018.1
20260506185554 76 121 1.7 7.0 0.00 0.00 0.00 44 1018.1
20260506185053 75 57 1.7 7.0 0.00 0.00 0.00 46 1018.2
20260506184553 74 13 2.6 5.2 0.00 0.00 0.00 45 1018.3
20260506184052 74 255 1.7 7.8 0.00 0.00 0.00 45 1018.3
20260506183553 74 9 2.6 7.8 0.00 0.00 0.00 47 1018.4
20260506183051 74 53 1.7 7.8 0.00 0.00 0.00 46 1018.5
20260506182549 74 318 3.5 7.8 0.00 0.00 0.00 46 1018.5
20260506182048 73 57 2.6 6.1 0.00 0.00 0.00 47 1018.6
20260506181547 73 36 1.7 7.0 0.00 0.00 0.00 48 1018.6
20260506181047 72 355 2.6 10.4 0.00 0.00 0.00 48 1018.6
20260506180546 72 9 2.6 10.4 0.00 0.00 0.00 50 1018.8
20260506180048 71 123 0.0 6.1 0.00 0.00 0.00 50 1018.7
20260506175545 72 121 3.5 5.2 0.00 0.00 0.00 49 1018.7
20260506175044 72 12 2.6 5.2 0.00 0.00 0.00 50 1018.8
20260506174543 72 32 2.6 5.2 0.00 0.00 0.00 49 1018.9
20260506174043 71 15 1.7 7.0 0.00 0.00 0.00 51 1018.9
20260506173541 71 327 2.6 7.0 0.00 0.00 0.00 51 1018.9
20260506173115 71 39 1.7 7.0 0.00 0.00 0.00 50 1018.9
20260506172541 71 321 1.7 7.0 0.00 0.00 0.00 51 1018.9
20260506172040 71 360 2.6 12.2 0.00 0.00 0.00 52 1018.9
20260506171539 70 28 2.6 12.2 0.00 0.00 0.00 52 1018.9
20260506171040 70 18 4.3 10.4 0.00 0.00 0.00 55 1018.9
20260506170540 69 311 2.6 8.7 0.00 0.00 0.00 54 1019.0
20260506170040 69 5 5.2 8.7 0.00 0.00 0.00 55 1018.9
20260506165534 69 109 2.6 7.8 0.00 0.00 0.00 57 1018.9
20260506165032 68 319 4.3 7.8 0.00 0.00 0.00 58 1018.8
20260506164533 67 350 2.6 7.0 0.00 0.00 0.00 59 1018.8
20260506164030 67 327 2.6 8.7 0.00 0.00 0.00 61 1018.8
20260506163534 66 300 4.3 8.7 0.00 0.00 0.00 60 1018.9
20260506163034 66 328 2.6 5.2 0.00 0.00 0.00 61 1018.9
20260506162526 65 5 0.0 7.0 0.00 0.00 0.00 63 1018.9
20260506162033 65 336 2.6 7.0 0.00 0.00 0.00 62 1019.0
20260506161526 65 19 3.5 7.8 0.00 0.00 0.00 64 1019.1
20260506161024 64 5 2.6 7.8 0.00 0.00 0.00 65 1019.1
20260506160524 64 333 2.6 7.0 0.00 0.00 0.00 66 1019.1
20260506160022 64 340 3.5 7.0 0.00 0.00 0.00 68 1019.1
20260506155520 63 48 1.7 7.8 0.00 0.00 0.00 69 1019.1
20260506155019 62 348 2.6 7.0 0.00 0.00 0.00 72 1019.1
20260506154517 61 343 3.5 7.8 0.00 0.00 0.00 73 1019.2
20260506154019 61 336 4.3 7.8 0.00 0.00 0.00 75 1019.3
20260506153514 60 315 2.6 5.2 0.00 0.00 0.00 78 1019.3
20260506153013 59 5 0.9 5.2 0.00 0.00 0.00 81 1019.3
20260506152512 58 322 1.7 3.5 0.00 0.00 0.00 85 1019.4
20260506152010 57 11 1.7 3.5 0.00 0.00 0.00 88 1019.5
20260506151509 55 15 0.0 2.6 0.00 0.00 0.00 91 1019.5
20260506151007 54 32 0.0 1.7 0.00 0.00 0.00 93 1019.4
20260506150506 52 85 0.0 1.7 0.00 0.00 0.00 94 1019.5
20260506150005 51 127 0.0 1.7 0.00 0.00 0.00 94 1019.5
20260506145502 51 127 0.0 1.7 0.00 0.00 0.00 94 1019.6
20260506145002 50 127 0.0 1.7 0.00 0.00 0.00 95 1019.5
20260506144600 50 127 0.0 1.7 0.00 0.00 0.00 95 1019.5
20260506144059 49 99 0.0 0.9 0.00 0.00 0.00 96 1019.6
20260506143558 48 99 0.0 1.7 0.00 0.00 0.00 96 1019.6
20260506143057 48 99 0.0 1.7 0.00 0.00 0.00 96 1019.5
20260506142556 47 99 0.0 1.7 0.00 0.00 0.00 96 1019.5
20260506142059 46 99 0.0 1.7 0.00 0.00 0.00 96 1019.5
20260506141555 45 116 0.0 1.7 0.00 0.00 0.00 95 1019.3
20260506141054 45 116 0.0 1.7 0.00 0.00 0.00 96 1019.3
20260506140554 44 116 0.0 1.7 0.00 0.00 0.00 96 1019.3
20260506140052 44 116 0.0 1.7 0.00 0.00 0.00 96 1019.2
20260506135550 43 116 0.0 1.7 0.00 0.00 0.00 95 1019.3
20260506135049 43 116 0.0 1.7 0.00 0.00 0.00 95 1019.2
20260506134549 43 74 0.0 1.7 0.00 0.00 0.00 95 1019.1
20260506134048 42 42 0.0 0.9 0.00 0.00 0.00 95 1019.2
20260506133548 42 42 0.0 0.9 0.00 0.00 0.00 95 1019.2
20260506133047 42 117 0.0 1.7 0.00 0.00 0.00 95 1019.2
20260506132545 42 117 0.0 1.7 0.00 0.00 0.00 95 1019.2
20260506132045 42 350 0.0 1.7 0.00 0.00 0.00 95 1019.0
20260506131551 42 316 0.0 1.7 0.00 0.00 0.00 95 1019.0
20260506131043 42 316 0.0 2.6 0.00 0.00 0.00 95 1019.0
20260506130542 42 317 0.0 2.6 0.00 0.00 0.00 94 1018.9
20260506130058 42 300 0.0 0.0 0.00 0.00 0.00 94 1019.0
20260506125539 42 300 0.0 0.0 0.00 0.00 0.00 95 1018.9
20260506125039 42 300 0.0 0.0 0.00 0.00 0.00 94 1018.9
20260506124538 42 300 0.0 0.0 0.00 0.00 0.00 94 1018.8
20260506124038 42 300 0.0 0.0 0.00 0.00 0.00 94 1018.9
20260506123538 42 300 0.0 0.0 0.00 0.00 0.00 94 1019.0
20260506123040 42 300 0.0 0.0 0.00 0.00 0.00 94 1018.9
20260506122540 43 300 0.0 0.0 0.00 0.00 0.00 94 1019.0
20260506122037 43 300 0.0 0.0 0.00 0.00 0.00 94 1019.0
20260506121536 43 300 0.0 0.0 0.00 0.00 0.00 94 1019.0
20260506121036 43 300 0.0 0.0 0.00 0.00 0.00 94 1019.0
20260506120536 43 300 0.0 0.0 0.00 0.00 0.00 94 1018.9
20260506120036 43 300 0.0 0.0 0.00 0.00 0.00 94 1019.0
20260506115535 43 300 0.0 0.0 0.00 0.00 0.00 94 1019.0
20260506115034 43 300 0.0 0.0 0.00 0.00 0.00 94 1018.9
20260506114538 43 300 0.0 0.0 0.00 0.00 0.00 94 1018.9
20260506114034 43 300 0.0 0.0 0.00 0.00 0.00 94 1018.9
20260506113533 43 300 0.0 0.0 0.00 0.00 0.00 94 1019.0
20260506113037 44 300 0.0 0.0 0.00 0.00 0.00 94 1018.9
20260506112531 44 300 0.0 0.0 0.00 0.00 0.00 94 1018.9
20260506112035 44 300 0.0 0.0 0.00 0.00 0.00 94 1018.9
20260506111531 44 300 0.0 0.0 0.00 0.00 0.00 94 1018.8
20260506111030 44 300 0.0 0.0 0.00 0.00 0.00 94 1018.9
20260506110531 44 300 0.0 0.0 0.00 0.00 0.00 94 1018.8
20260506110030 44 300 0.0 0.0 0.00 0.00 0.00 94 1018.8
20260506105528 44 300 0.0 0.0 0.00 0.00 0.00 94 1018.9
20260506105031 45 300 0.0 0.0 0.00 0.00 0.00 94 1018.8
20260506104529 45 300 0.0 0.0 0.00 0.00 0.00 94 1018.8
20260506104026 45 300 0.0 0.0 0.00 0.00 0.00 94 1018.7
20260506103526 45 300 0.0 0.0 0.00 0.00 0.00 94 1018.8
20260506103033 45 300 0.0 0.0 0.00 0.00 0.00 94 1018.8
20260506102525 45 300 0.0 0.0 0.00 0.00 0.00 93 1018.8
20260506102024 45 300 0.0 0.0 0.00 0.00 0.00 94 1018.8
20260506101539 46 300 0.0 0.0 0.00 0.00 0.00 93 1018.8
20260506101024 46 268 0.0 0.0 0.00 0.00 0.00 94 1018.8
20260506100524 46 268 0.0 0.0 0.00 0.00 0.00 94 1018.8
20260506100024 46 268 0.0 0.0 0.00 0.00 0.00 94 1018.8
20260506095525 46 268 0.0 0.0 0.00 0.00 0.00 94 1018.8
20260506095026 46 268 0.0 0.0 0.00 0.00 0.00 94 1018.8
20260506094525 46 268 0.0 0.0 0.00 0.00 0.00 94 1018.8
20260506094026 45 268 0.0 0.0 0.00 0.00 0.00 94 1018.8
20260506093522 45 268 0.0 0.0 0.00 0.00 0.00 93 1018.9
20260506093027 45 268 0.0 0.0 0.00 0.00 0.00 92 1018.9
20260506092521 46 233 0.0 0.0 0.00 0.00 0.00 93 1018.9
20260506092021 46 233 0.0 0.0 0.00 0.00 0.00 94 1018.8
20260506091521 46 233 0.0 0.0 0.00 0.00 0.00 94 1018.9
20260506091024 46 233 0.0 0.0 0.00 0.00 0.00 94 1018.9
20260506090520 46 233 0.0 0.0 0.00 0.00 0.00 93 1018.9
20260506090020 46 233 0.0 0.0 0.00 0.00 0.00 93 1018.8
20260506085521 46 233 0.0 0.0 0.00 0.00 0.00 92 1019.0
20260506085019 46 233 0.0 0.0 0.00 0.00 0.00 92 1019.0
20260506084519 46 233 0.0 0.0 0.00 0.00 0.00 92 1018.9
20260506084018 46 233 0.0 0.0 0.00 0.00 0.00 92 1019.0
20260506083517 46 233 0.0 0.0 0.00 0.00 0.00 93 1018.9
20260506083017 46 233 0.0 0.0 0.00 0.00 0.00 93 1019.0
20260506082518 46 233 0.0 0.0 0.00 0.00 0.00 93 1019.0
20260506082017 46 233 0.0 0.0 0.00 0.00 0.00 93 1019.1
20260506081515 46 233 0.0 0.0 0.00 0.00 0.00 92 1019.1
20260506081015 46 233 0.0 0.0 0.00 0.00 0.00 92 1019.0
20260506080514 47 233 0.0 0.0 0.00 0.00 0.00 91 1019.1
20260506073508 48 233 0.0 0.0 0.00 0.00 0.00 93 1018.8
20260506073016 48 233 0.0 0.0 0.00 0.00 0.00 93 1018.9
20260506072509 48 233 0.0 0.0 0.00 0.00 0.00 92 1018.8
20260506072007 48 233 0.0 0.0 0.00 0.00 0.00 92 1018.8
20260506071508 48 233 0.0 0.0 0.00 0.00 0.00 92 1018.7
20260506071008 48 233 0.0 0.0 0.00 0.00 0.00 91 1018.7
20260506070506 49 233 0.0 0.0 0.00 0.00 0.00 91 1018.7
20260506062100 50 233 0.0 0.0 0.00 0.00 0.00 90 1018.3
20260506061559 50 233 0.0 0.0 0.00 0.00 0.00 91 1018.2
20260506061058 50 233 0.0 0.0 0.00 0.00 0.00 90 1018.2
20260506060601 50 233 0.0 0.0 0.00 0.00 0.00 90 1018.2
20260506051055 51 211 0.0 0.0 0.00 0.00 0.00 88 1017.9
20260506050555 52 176 0.0 0.0 0.00 0.00 0.00 87 1017.9
20260506045052 52 159 0.0 0.0 0.00 0.00 0.00 87 1017.6
20260506044657 53 149 0.0 0.0 0.00 0.00 0.00 87 1017.5
20260506044055 53 146 0.0 2.6 0.00 0.00 0.00 86 1017.6
20260506043553 53 146 0.0 2.6 0.00 0.00 0.00 86 1017.5
20260506043052 53 86 0.9 2.6 0.00 0.00 0.00 86 1017.5
20260506042552 54 219 0.0 4.3 0.00 0.00 0.00 86 1017.4
20260506042051 54 213 1.7 4.3 0.00 0.00 0.00 86 1017.3
20260506041600 54 212 0.0 2.6 0.00 0.00 0.00 86 1017.3
20260506041049 54 322 0.9 4.3 0.00 0.00 0.00 86 1017.3
20260506040552 54 98 0.9 6.1 0.00 0.00 0.00 86 1017.2
20260506040048 54 277 3.5 7.8 0.00 0.00 0.00 85 1017.1
20260506035547 54 236 4.3 7.8 0.00 0.00 0.00 85 1017.0
20260506035047 54 304 1.7 7.0 0.00 0.00 0.00 84 1017.0
20260506034620 54 292 2.6 7.0 0.00 0.00 0.00 84 1016.9
20260506034046 54 237 2.6 6.1 0.00 0.00 0.00 84 1016.9